User: anonymous   Login
Location: Borea
(45.6167°N, 23.0167°E)
Time: 20:35:17
(UTC+00:00)
Language:

NUSAT 1 DEB - Orbit

View from above orbital plane
View from above orbital plane
View from above satellite
View from above satellite

Ground track
Ground track

The orbit data is extracted from the following two-line orbital elements,

1 43427U 16033E   24057.09503352  .00185303  00000-0  38642-2 0  9993
2 43427  97.5864   8.2770 0063598 203.7655 156.0653 15.42716009408401
Epoch (UTC): 26 February 2024 02:16:50
Eccentricity: 0.0063598
inclination: 97.5864°
perigee height: 395 km
apogee height: 481 km
right ascension of ascending node: 8.2770°
argument of perigee: 203.7655°
revolutions per day: 15.42716009
mean anomaly at epoch: 156.0653°
orbit number at epoch: 40840

The dashed part of the orbit path shows where the satellite is in the earth's shadow,  

DLR